Air Resources Laboratory banner image
Air Resources Laboratory web site National Oceanic and Atmospheric Administration (NOAA)

ks roundup


Office: GLD

ASUS43 KGLD 121308
RWRGLD

GOODLAND FORECAST AREA HOURLY WEATHER ROUNDUP
NATIONAL WEATHER SERVICE GOODLAND KS
600 AM MST TUE DEC 12 2017

...OFFICIAL OBSERVATIONS...

CITY           SKY/WX    TMP DP  RH WIND       PRES   REMARKS
GOODLAND KS    CLEAR     24  10  55 W12       30.33F WCI  13
HILL CITY KS   CLOUDY    23  19  85 NW6       30.37F
IMPERIAL NEB   CLOUDY    18  11  74 W6        30.32F
MCCOOK NEB     CLOUDY    21  16  81 W8        30.34F
AKRON CO       CLOUDY    28   8  43 W12       30.33S WCI  18
BURLINGTON CO  CLOUDY    20  10  65 W9        30.34F
LIMON CO       CLOUDY    15   5  64 N8        30.37F
$$

...UNOFFICIAL OBSERVATIONS...

CITY           SKY/WX    TMP DP  RH WIND       PRES   REMARKS
COLBY KS       CLOUDY    18  14  86 W9        30.35F
LENORA KS        N/A     25  32 100 W6          N/A
NORTON KS      CLEAR     19  14  79 SW6       30.35
SHARON SPRINGS   N/A     17   8  69 CALM        N/A
TRENTON NEB      N/A     17  32 100 W5          N/A
KIT CARSON CO    N/A     15   4  62 CALM        N/A
YUMA CO        FAIR      23  10  58 W9        30.32F
$$


ASUS43 KGLD 121359
RWRGLD

GOODLAND FORECAST AREA HOURLY WEATHER ROUNDUP
NATIONAL WEATHER SERVICE GOODLAND KS
700 AM MST TUE DEC 12 2017

...OFFICIAL OBSERVATIONS...

CITY           SKY/WX    TMP DP  RH WIND       PRES   REMARKS
GOODLAND KS    CLOUDY    27  10  49 W12       30.32F WCI  17
HILL CITY KS   CLOUDY    23  19  85 W8        30.36F
IMPERIAL NEB   CLEAR     20  12  71 W7        30.30F
MCCOOK NEB     CLOUDY    20  15  81 W8        30.33F
AKRON CO       CLOUDY    27   8  44 W13       30.32F WCI  16
BURLINGTON CO  CLOUDY    25  11  55 W10       30.33F WCI  15
LIMON CO       CLOUDY    15   5  64 N8        30.36F
$$

...UNOFFICIAL OBSERVATIONS...

CITY           SKY/WX    TMP DP  RH WIND       PRES   REMARKS
LENORA KS        N/A     24  32 100 W5          N/A
NORTON KS      CLEAR     18  12  79 SW6       30.33
SHARON SPRINGS   N/A     18   9  68 W6          N/A
TRENTON NEB      N/A     18  32 100 W6          N/A
KIT CARSON CO    N/A     15   4  62 CALM        N/A
YUMA CO        FAIR      21  10  63 W12       30.31F WCI   9
$$




Office: TOP ASUS43 KTOP 121308 RWRKS WEATHER ROUNDUP FOR KANSAS NATIONAL WEATHER SERVICE GOODLAND KS 700 AM CST TUE DEC 12 2017 NOTE: "FAIR" INDICATES FEW OR NO CLOUDS BELOW 12,000 FEET WITH NO SIGNIFICANT WEATHER AND/OR OBSTRUCTIONS TO VISIBILITY. KSZ001>006-013>018-027>032-041>047-121400- NORTHWEST KANSAS CITY SKY/WX TMP DP RH WIND PRES REMARKS GOODLAND CLEAR 24 10 55 W12 30.33F WCI 13 HAYS CLOUDY 20 17 88 W7 30.39S HILL CITY CLOUDY 23 19 85 NW6 30.37F RUSSELL CLOUDY 19 19 100 W7 30.37S $$ KSZ061>065-074>080-084>089-121400- SOUTHWEST KANSAS CITY SKY/WX TMP DP RH WIND PRES REMARKS DODGE CITY CLOUDY 18 13 80 SW5 30.40F ELKHART CLOUDY 29 14 54 W9 30.40F GARDEN CITY CLOUDY 18 12 77 W7 30.39F GREAT BEND CLOUDY 23 20 88 W10 30.40S WCI 12 LIBERAL CLOUDY 20 12 71 W12 30.42F WCI 8 PRATT CLOUDY 24 20 83 W9 30.40S $$ KSZ066>073-081>083-090>101-121400- SOUTHEAST KANSAS CITY SKY/WX TMP DP RH WIND PRES REMARKS CHANUTE CLEAR 26 20 77 N7 30.35S COFFEYVILLE CLEAR 27 23 85 W5 30.37R HUTCHINSON CLOUDY 22 21 96 NW7 30.39R MEDICINE LODGE N/A 26 23 88 NW5 30.41S NEWTON CLOUDY 25 21 85 NW7 30.38R PARSONS CLEAR 28 24 85 N7 30.35S WICHITA INTL CLOUDY 26 22 84 NW7 30.39R WICHITA JABRA CLOUDY 27 24 89 W7 30.38S WICHITA MCCONL CLOUDY 29 23 77 NW10 30.38R WCI 20 WINFIELD CLOUDY 22 20 92 N7 30.40S $$ KSZ007>012-019>026-033>040-048>060-102>105-121400- NORTHEAST KANSAS CITY SKY/WX TMP DP RH WIND PRES REMARKS CONCORDIA CLOUDY 28 25 88 W3 30.36S EMPORIA CLEAR 25 20 81 NW6 30.36R LAWRENCE CLEAR 21 15 78 W9 30.38R MANHATTAN CLOUDY 23 18 81 CALM 30.39R MARYSVILLE CLOUDY 19 18 93 NW7 30.36R OLATHE IND CLEAR 20 15 81 NW8 30.35R OLATHE EXE CLEAR 22 16 78 NW9 30.33R SALINA CLOUDY 27 23 85 CALM 30.39S TOPEKA BILLARD CLOUDY 22 16 78 W5 30.38R TOPEKA FORBES CLOUDY 22 15 75 NW7 30.36R $$ ASUS43 KTOP 121359 RWRKS WEATHER ROUNDUP FOR KANSAS NATIONAL WEATHER SERVICE GOODLAND KS 800 AM CST TUE DEC 12 2017 NOTE: "FAIR" INDICATES FEW OR NO CLOUDS BELOW 12,000 FEET WITH NO SIGNIFICANT WEATHER AND/OR OBSTRUCTIONS TO VISIBILITY. KSZ001>006-013>018-027>032-041>047-121500- NORTHWEST KANSAS CITY SKY/WX TMP DP RH WIND PRES REMARKS GOODLAND CLOUDY 27 10 49 W12 30.32F WCI 17 HAYS CLOUDY 19 16 88 W8 30.38F HILL CITY CLOUDY 23 19 85 W8 30.36F RUSSELL CLOUDY 18 17 96 SW6 30.36F $$ KSZ061>065-074>080-084>089-121500- SOUTHWEST KANSAS CITY SKY/WX TMP DP RH WIND PRES REMARKS DODGE CITY CLOUDY 19 13 77 SW5 30.39F GARDEN CITY CLOUDY 18 11 74 W9 30.38F GREAT BEND CLOUDY 21 18 88 W5 30.39F LIBERAL CLOUDY 20 12 71 W9 30.41F $$ KSZ066>073-081>083-090>101-121500- SOUTHEAST KANSAS CITY SKY/WX TMP DP RH WIND PRES REMARKS CHANUTE CLEAR 26 18 71 N7 30.37R COFFEYVILLE CLEAR 28 22 78 N9 30.39R HUTCHINSON CLOUDY 22 21 96 NW8 30.39S MEDICINE LODGE N/A 26 23 88 NW3 30.42R NEWTON CLOUDY 25 21 85 NW7 30.40R PARSONS CLEAR 26 21 81 NW6 30.39R WICHITA INTL CLOUDY 28 24 85 NW8 30.39S WICHITA JABRA CLOUDY 27 24 89 NW10 30.39R WCI 17 WICHITA MCCONL CLOUDY 29 23 77 NW9 30.39R WINFIELD CLOUDY 24 21 88 NW7 30.41R $$ KSZ007>012-019>026-033>040-048>060-102>105-121500- NORTHEAST KANSAS CITY SKY/WX TMP DP RH WIND PRES REMARKS CONCORDIA CLOUDY 29 25 85 W6 30.35F EMPORIA CLOUDY 22 18 85 NW5 30.37R LAWRENCE CLOUDY 17 13 84 W7 30.37F MANHATTAN CLOUDY 25 19 78 CALM 30.38F OLATHE IND CLEAR 20 16 84 NW8 30.36R OLATHE EXE CLEAR 21 16 81 NW6 30.34R SALINA CLOUDY 28 25 88 SW5 30.39F TOPEKA BILLARD CLOUDY 22 16 78 W6 30.38S TOPEKA FORBES CLOUDY 21 15 78 NW9 30.36S $$
Office: EAX ASUS43 KEAX 121310 RWREAX WEATHER ROUNDUP FOR EASTERN KANSAS AND NORTHWEST MISSOURI NATIONAL WEATHER SERVICE KANSAS CITY/PLEASANT HILL MO 700 AM CST TUE DEC 12 2017 KSZ040-057-103>105-MOZ028-029-037-043-121400- ...KANSAS CITY METROPOLITAN AREA... CITY SKY/WX TMP DP RH WIND PRES REMARKS K.C. INTL CLEAR 19 14 81 NW8 30.33R WCI 9 K.C. DOWNTOWN CLEAR 23 13 65 N6 30.35R WCI 16 LEES SUMMIT CLEAR 22 14 71 N10 30.32S WCI 11 OLATHE - IXD CLEAR 20 15 81 NW8 30.35R WCI 10 OLATHE - OJC CLEAR 22 16 78 NW9 30.33R WCI 12 LAWRENCE CLEAR 21 15 78 W9 30.38R WCI 11 $$ MOZ001>008-011>017-020>025-030>033-038>040-044>046-053-054-121400- ...NORTHERN AND CENTRAL MISSOURI... CITY SKY/WX TMP DP RH WIND PRES REMARKS ST. JOSEPH CLOUDY 18 13 80 N9 30.36R WCI 7 MOSBY SUNNY 21 14 73 NW5 30.34S WCI 15 WARRENSBURG CLEAR 21 14 73 NW5 30.33S WCI 15 WHITEMAN AFB CLEAR 20 13 75 N8 30.27S WCI 10 CLINTON CLEAR 19 16 86 N7 30.33S WCI 10 SEDALIA CLEAR 22 16 78 NW14 30.32R WCI 9 WARSAW NOT AVBL CHILLICOTHE N/A 19 11 70 NW8 30.33R WCI 9 KIRKSVILLE CLEAR 18 14 84 NW10 30.28R WCI 6 $$ MOZ041-047>049-056>058-063>065-088>090-097-121400- ...EASTERN AND SOUTHERN MISSOURI... CITY SKY/WX TMP DP RH WIND PRES REMARKS ST. LOUIS INTL PTCLDY 29 19 66 NW13G25 30.20R WCI 19 SPIRIT OF STL PTCLDY 28 18 66 NW14 30.22R WCI 17 COLUMBIA CLEAR 22 16 78 NW9 30.28R WCI 12 JEFFERSON CITY CLEAR 25 17 72 NW7 30.30R WCI 17 ROLLA PTCLDY 25 18 74 NW14G24 30.24R WCI 13 OSAGE BEACH CLEAR 24 18 77 NW6 30.30R WCI 17 SPRINGFIELD CLEAR 26 19 74 NW13 30.27R WCI 15 BRANSON PTCLDY 30 23 74 NW12G18 30.28R WCI 21 JOPLIN CLEAR 24 19 81 N8 30.33S WCI 15 WEST PLAINS FLURRIES 28 20 71 NW17G25 30.22R WCI 16 $$ IAZ060-094-KSZ022-034>040-054-083-096-NEZ052-066-093-121400- ...KANSAS...SOUTHEAST NEBRASKA AND IOWA... CITY SKY/WX TMP DP RH WIND PRES REMARKS TOPEKA CLOUDY 22 16 78 W5 30.38R WCI 16 MANHATTAN CLOUDY 23 18 81 CALM 30.39R EMPORIA CLEAR 25 20 81 NW6 30.36R WCI 18 CHANUTE CLEAR 26 20 77 N7 30.35S WCI 18 WICHITA CLOUDY 26 22 84 NW7 30.39R WCI 18 OMAHA CLOUDY 16 10 77 N3 30.35S LINCOLN CLOUDY 20 15 81 W5 30.35F WCI 13 FALLS CITY CLOUDY 16 12 84 W8 30.35S WCI 5 LAMONI CLEAR 12 7 80 W6 30.29R WCI 3 DES MOINES CLEAR 15 8 73 NW10 30.28S WCI 2 $$